カタログに戻る

ONEWEB-0349

運用中通信PO
NORAD 49281·PAYLOAD·🇬🇧 United Kingdom

打ち上げ Oct 14, 2021 から Vostochny Cosmodrome

Loading…

次のパス (今後24時間)

TLE

最新Source: CelesTrak SupGP

元期: Sep 14, 2026, 18:43 UTC

1 49281C 21090C   26257.78002732  .00001847  00000+0  45482-2 0  2578
2 49281  87.9136 256.5689 0002021  90.7831 305.0044 13.20767546    12

AllMySatでONEWEB-0349をリアルタイム追跡

Download on the App Store